Home   Weather   Mühlacker   Past weeks

Flag for Germany Past Weather in Mühlacker, Baden-Württemberg, Germany — Yesterday and Last 2 Weeks

Now
77 °F

Passing clouds.


Feels Like: 78 °F
Forecast: 57 / 72 °F
Wind: 10 mph from Southwest

Location: Stuttgart-Echterdingen

Current Time: Sep 29, 2016 at 3:44:37 PM

Latest Report: Sep 29, 2016 at 2:50 PM


Visibility: N/A

Pressure: 30.12 "Hg

Humidity: 36%

Dew Point: 48 °F

Location of MühlackerLocation

Past Weather in Mühlacker — Graph

°F

Mühlacker Temperature Yesterday

Maximum temperature yesterday: 73 °F (at 2:20 PM)
Minimum temperature yesterday: 48 °F (at 4:50 AM)
Average temperature yesterday: 59 °F

High & Low Weather Summary for the Past Weeks

 TemperatureHumidityPressure
High86 °F (Sep 14, 3:50 PM)100% (Sep 18, 9:20 AM)30.42 "Hg (Sep 18, 9:20 AM)
Low41 °F (Sep 22, 5:50 AM)29% (Sep 14, 4:20 PM)29.83 "Hg (Sep 15, 3:20 AM)
Average60 °F77%30.12 "Hg
* Reported Sep 14 2:20 PM — Sep 29 2:20 PM, Mühlacker, Weather by CustomWeather, © 2016

Note: Actual official high and low records may vary slightly from our data, if they occured in-between our weather recording intervals... More about our weather records

Advertising

Mühlacker Weather History for the Previous 24 Hours

Scroll right to see more
 ConditionsComfort  
Time TempWeatherWind HumidityBarometerVisibility
2:20 PM
Thu, Sep 29
75 °FPassing clouds.10 mph36%30.15 "HgN/A
1:50 PM73 °FPassing clouds.9 mph44%30.15 "HgN/A
1:20 PM73 °FPassing clouds.8 mph44%30.18 "HgN/A
12:50 PM72 °FPassing clouds.9 mph47%30.18 "HgN/A
12:20 PM72 °FPassing clouds.8 mph50%30.21 "HgN/A
11:50 AM70 °FPassing clouds.8 mph53%30.21 "HgN/A
11:20 AM70 °FPassing clouds.8 mph53%30.24 "HgN/A
10:50 AM68 °FPassing clouds.8 mph56%30.24 "HgN/A
10:20 AM66 °FSunny.2 mph60%30.24 "Hg10 mi
9:50 AM63 °FSunny.1 mph64%30.27 "Hg10 mi
9:20 AM59 °FSunny.1 mph68%30.27 "Hg10 mi
8:50 AM57 °FSunny.1 mph72%30.27 "Hg10 mi
8:20 AM54 °FSunny.1 mph77%30.27 "Hg10 mi
7:50 AM50 °FSunny.1 mph82%30.27 "Hg10 mi
7:20 AM50 °FSunny.1 mph94%30.27 "Hg10 mi
6:50 AM52 °FClear.2 mph77%30.27 "Hg10 mi
6:20 AM54 °FClear.1 mph77%30.27 "Hg10 mi
5:50 AM55 °FClear.2 mph72%30.27 "Hg10 mi
5:20 AM54 °FClear.No wind88%30.27 "Hg10 mi
4:50 AM55 °FClear.1 mph77%30.30 "Hg10 mi
4:20 AM55 °FClear.1 mph82%30.30 "Hg10 mi
3:50 AM55 °FClear.1 mph82%30.33 "Hg10 mi
3:20 AM55 °FPassing clouds.3 mph82%30.33 "HgN/A
2:50 AM57 °FClear.1 mph67%30.33 "Hg10 mi
2:20 AM57 °FClear.2 mph72%30.33 "Hg10 mi
1:50 AM57 °FClear.2 mph82%30.33 "Hg10 mi
1:20 AM57 °FClear.2 mph72%30.36 "Hg10 mi
12:50 AM55 °FClear.3 mph88%30.36 "Hg10 mi
12:20 AM57 °FClear.2 mph82%30.36 "Hg10 mi
11:50 PM
Wed, Sep 28
57 °FClear.2 mph77%30.36 "Hg10 mi
11:20 PM57 °FClear.1 mph77%30.36 "Hg10 mi
10:50 PM57 °FClear.2 mph77%30.36 "Hg10 mi
10:20 PM59 °FClear.1 mph72%30.36 "Hg10 mi
9:50 PM59 °FClear.2 mph72%30.36 "Hg10 mi
9:20 PM59 °FClear.3 mph68%30.36 "Hg10 mi
8:50 PM63 °FClear.3 mph68%30.36 "Hg10 mi
8:20 PM63 °FPassing clouds.3 mph64%30.36 "HgN/A
7:50 PM63 °FClear.8 mph64%30.36 "Hg10 mi
7:20 PM66 °FClear.8 mph60%30.36 "Hg10 mi
6:50 PM66 °FSunny.8 mph60%30.36 "Hg10 mi
6:20 PM68 °FPassing clouds.7 mph56%30.36 "HgN/A
5:50 PM72 °FPassing clouds.8 mph50%30.36 "HgN/A
5:20 PM72 °FSunny.1 mph57%30.33 "Hg10 mi
4:50 PM72 °FPassing clouds.6 mph61%30.33 "HgN/A
4:20 PM72 °FPassing clouds.7 mph61%30.33 "HgN/A
3:50 PM72 °FPassing clouds.6 mph61%30.33 "HgN/A
3:20 PM72 °FPartly sunny.5 mph57%30.36 "HgN/A
Weather by CustomWeather, © 2016

See weather overviewHow to use our weather pages